EW4883 Weather Reports


Display with metric or nautical units.
time (UTC)temp
F
wind
direction
speed
MPH
gust
MPH
rain 1hr
in
rain 24hr
in
rain mn
in
humidity
%
barometer
mb
20260509042554 80 360 2.0 3.0 0.00 0.00 0.00 17 1012.3
20260509042054 79 360 1.0 2.0 0.00 0.00 0.00 17 1012.2
20260509041556 79 360 1.0 4.0 0.00 0.00 0.00 17 1012.2
20260509041054 80 360 1.0 4.0 0.00 0.00 0.00 17 1012.2
20260509040556 80 360 1.0 2.0 0.00 0.00 0.00 17 1012.1
20260509040051 80 0 0.0 3.0 0.00 0.00 0.00 16 1012.0
20260509035553 80 360 0.0 3.0 0.00 0.00 0.00 16 1011.9
20260509035054 81 360 1.0 3.0 0.00 0.00 0.00 16 1012.0
20260509034604 81 360 1.0 4.0 0.00 0.00 0.00 15 1011.8
20260509034053 81 360 1.0 4.0 0.00 0.00 0.00 15 1011.8
20260509033553 82 360 2.0 4.0 0.00 0.00 0.00 15 1011.7
20260509033105 82 360 1.0 3.0 0.00 0.00 0.00 15 1011.7
20260509032553 82 360 1.0 4.0 0.00 0.00 0.00 14 1011.6
20260509032057 82 360 1.0 4.0 0.00 0.00 0.00 15 1011.6
20260509031558 82 360 2.0 4.0 0.00 0.00 0.00 14 1011.6
20260509031054 82 360 1.0 4.0 0.00 0.00 0.00 14 1011.5
20260509030554 83 360 1.0 4.0 0.00 0.00 0.00 14 1011.5
20260509030054 83 0 1.0 4.0 0.00 0.00 0.00 14 1011.5
20260509025553 83 360 1.0 3.0 0.00 0.00 0.00 13 1011.4
20260509025053 84 360 1.0 4.0 0.00 0.00 0.00 13 1011.3
20260509024604 84 360 1.0 4.0 0.00 0.00 0.00 13 1011.3
20260509024054 85 360 1.0 4.0 0.00 0.00 0.00 13 1011.3
20260509023553 85 360 0.0 4.0 0.00 0.00 0.00 13 1011.2
20260509023051 86 360 1.0 5.0 0.00 0.00 0.00 12 1011.2
20260509022554 86 360 1.0 6.0 0.00 0.00 0.00 12 1011.1
20260509022053 87 360 2.0 9.0 0.00 0.00 0.00 12 1011.1
20260509021555 87 360 2.0 9.0 0.00 0.00 0.00 11 1011.1
20260509021053 87 360 4.0 9.0 0.00 0.00 0.00 11 1011.0
20260509020549 88 360 2.0 8.0 0.00 0.00 0.00 11 1010.9
20260509020056 88 360 2.0 8.0 0.00 0.00 0.00 11 1010.9
20260509015549 88 360 2.0 10.0 0.00 0.00 0.00 11 1010.8
20260509015052 89 360 3.0 10.0 0.00 0.00 0.00 11 1010.8
20260509014553 89 298 3.0 10.0 0.00 0.00 0.00 11 1010.7
20260509014054 90 275 3.0 10.0 0.00 0.00 0.00 11 1010.7
20260509013550 90 310 3.0 10.0 0.00 0.00 0.00 10 1010.6
20260509013055 90 284 4.0 11.0 0.00 0.00 0.00 10 1010.6
20260509012549 90 325 4.0 11.0 0.00 0.00 0.00 10 1010.7
20260509012053 91 281 4.0 11.0 0.00 0.00 0.00 10 1010.7
20260509011603 91 292 3.0 12.0 0.00 0.00 0.00 10 1010.6
20260509011048 91 275 2.0 12.0 0.00 0.00 0.00 10 1010.7
20260509010552 91 317 3.0 12.0 0.00 0.00 0.00 10 1010.7
20260509010057 91 276 5.0 12.0 0.00 0.00 0.00 9 1010.7
20260509005552 91 290 7.0 12.0 0.00 0.00 0.00 9 1010.7
20260509005050 91 290 5.0 12.0 0.00 0.00 0.00 9 1010.7
20260509004559 91 294 5.0 11.0 0.00 0.00 0.00 9 1010.7
20260509004051 92 244 7.0 12.0 0.00 0.00 0.00 9 1010.7
20260509003552 92 286 3.0 15.0 0.00 0.00 0.00 9 1010.7
20260509003054 92 298 7.0 15.0 0.00 0.00 0.00 9 1010.7
20260509002551 92 272 8.0 15.0 0.00 0.00 0.00 9 1010.7
20260509002049 93 306 3.0 10.0 0.00 0.00 0.00 9 1010.8
20260509001555 92 275 4.0 15.0 0.00 0.00 0.00 9 1010.9
20260509001049 92 248 7.0 15.0 0.00 0.00 0.00 9 1010.9
20260509000556 93 299 4.0 13.0 0.00 0.00 0.00 9 1010.9
20260508235552 92 278 5.0 12.0 0.00 0.00 0.00 9 1010.8
20260508235053 92 341 6.0 13.0 0.00 0.00 0.00 9 1010.8
20260508234557 92 298 6.0 13.0 0.00 0.00 0.00 10 1010.9
20260508234055 92 296 8.0 13.0 0.00 0.00 0.00 9 1010.9
20260508233548 93 304 7.0 13.0 0.00 0.00 0.00 9 1010.9
20260508233100 93 271 7.0 13.0 0.00 0.00 0.00 9 1010.9
20260508232551 93 303 6.0 13.0 0.00 0.00 0.00 9 1011.0
20260508232049 93 312 5.0 14.0 0.00 0.00 0.00 9 1010.9
20260508231556 93 263 8.0 14.0 0.00 0.00 0.00 9 1011.0
20260508231050 92 277 4.0 15.0 0.00 0.00 0.00 9 1011.0
20260508230549 93 290 4.0 15.0 0.00 0.00 0.00 9 1011.1
20260508230050 93 325 7.0 15.0 0.00 0.00 0.00 9 1011.2
20260508225549 93 258 2.0 13.0 0.00 0.00 0.00 10 1011.1
20260508225049 93 317 7.0 13.0 0.00 0.00 0.00 10 1011.3
20260508224609 93 265 6.0 12.0 0.00 0.00 0.00 9 1011.2
20260508224048 92 246 6.0 17.0 0.00 0.00 0.00 8 1011.3
20260508223551 92 309 8.0 17.0 0.00 0.00 0.00 9 1011.5
20260508223052 92 304 7.0 14.0 0.00 0.00 0.00 10 1011.4
20260508222551 92 308 7.0 14.0 0.00 0.00 0.00 10 1011.5
20260508222048 92 294 4.0 16.0 0.00 0.00 0.00 10 1011.7
20260508221602 92 298 8.0 16.0 0.00 0.00 0.00 10 1011.7
20260508221050 93 255 6.0 14.0 0.00 0.00 0.00 9 1011.8
20260508220552 92 285 6.0 18.0 0.00 0.00 0.00 10 1011.8
20260508220053 92 278 8.0 18.0 0.00 0.00 0.00 12 1011.8
20260508215551 92 243 9.0 18.0 0.00 0.00 0.00 11 1012.0
20260508215048 92 342 3.0 14.0 0.00 0.00 0.00 12 1012.0
20260508214553 92 278 8.0 14.0 0.00 0.00 0.00 10 1012.2
20260508214052 92 302 6.0 14.0 0.00 0.00 0.00 11 1012.1
20260508213551 92 306 7.0 14.0 0.00 0.00 0.00 10 1012.4
20260508213053 92 294 5.0 16.0 0.00 0.00 0.00 10 1012.2
20260508212552 92 294 8.0 16.0 0.00 0.00 0.00 10 1012.3
20260508212054 92 317 6.0 12.0 0.00 0.00 0.00 11 1012.2
20260508211556 92 325 5.0 14.0 0.00 0.00 0.00 10 1012.3
20260508211048 91 275 5.0 16.0 0.00 0.00 0.00 12 1012.5
20260508210551 91 360 7.0 16.0 0.00 0.00 0.00 12 1012.6
20260508210052 92 360 8.0 16.0 0.00 0.00 0.00 11 1012.5
20260508205551 91 360 3.0 14.0 0.00 0.00 0.00 12 1012.6
20260508205048 91 271 8.0 16.0 0.00 0.00 0.00 12 1012.7
20260508204554 91 294 7.0 16.0 0.00 0.00 0.00 12 1012.8
20260508204048 91 253 7.0 13.0 0.00 0.00 0.00 11 1012.8
20260508203549 91 313 5.0 13.0 0.00 0.00 0.00 12 1012.8
20260508203059 91 302 5.0 15.0 0.00 0.00 0.00 12 1012.8
20260508202552 91 274 7.0 15.0 0.00 0.00 0.00 12 1012.9
20260508202049 91 347 6.0 12.0 0.00 0.00 0.00 13 1013.1
20260508201553 90 340 7.0 14.0 0.00 0.00 0.00 13 1013.2
20260508201053 90 302 6.0 14.0 0.00 0.00 0.00 13 1013.2
20260508200556 90 280 5.0 16.0 0.00 0.00 0.00 12 1013.2
20260508200107 90 360 7.0 16.0 0.00 0.00 0.00 13 1013.2
20260508195552 90 360 7.0 13.0 0.00 0.00 0.00 11 1013.4
20260508195049 89 360 8.0 12.0 0.00 0.00 0.00 14 1013.3
20260508194551 89 360 5.0 14.0 0.00 0.00 0.00 13 1013.4
20260508194048 89 360 7.0 15.0 0.00 0.00 0.00 14 1013.5
20260508193548 89 360 5.0 15.0 0.00 0.00 0.00 14 1013.7
20260508193102 89 360 7.0 14.0 0.00 0.00 0.00 13 1013.6
20260508192548 89 360 5.0 14.0 0.00 0.00 0.00 14 1013.7
20260508192049 89 360 4.0 15.0 0.00 0.00 0.00 14 1013.7
20260508191551 88 360 7.0 15.0 0.00 0.00 0.00 15 1013.8
20260508191048 88 360 5.0 13.0 0.00 0.00 0.00 14 1013.9
20260508190549 88 360 6.0 13.0 0.00 0.00 0.00 15 1013.9
20260508190053 88 360 4.0 12.0 0.00 0.00 0.00 15 1014.0
20260508185551 88 360 6.0 12.0 0.00 0.00 0.00 15 1014.0
20260508185053 87 360 3.0 16.0 0.00 0.00 0.00 16 1014.1
20260508184552 87 360 6.0 16.0 0.00 0.00 0.00 15 1014.3
20260508184055 87 360 8.0 14.0 0.00 0.00 0.00 16 1014.3
20260508183548 86 360 2.0 15.0 0.00 0.00 0.00 16 1014.2
20260508183116 86 0 5.0 15.0 0.00 0.00 0.00 16 1014.3
20260508182549 86 360 6.0 13.0 0.00 0.00 0.00 16 1014.4
20260508182056 86 360 4.0 9.0 0.00 0.00 0.00 16 1014.4
20260508181610 86 360 3.0 6.0 0.00 0.00 0.00 17 1014.4
20260508181048 85 360 0.0 10.0 0.00 0.00 0.00 18 1014.4
20260508180552 85 360 4.0 10.0 0.00 0.00 0.00 18 1014.5
20260508180054 84 360 5.0 9.0 0.00 0.00 0.00 18 1014.5
20260508175555 85 360 4.0 8.0 0.00 0.00 0.00 18 1014.6
20260508175055 84 350 3.0 6.0 0.00 0.00 0.00 18 1014.7
20260508174553 83 360 1.0 8.0 0.00 0.00 0.00 19 1014.8
20260508174051 83 360 2.0 8.0 0.00 0.00 0.00 19 1014.9
20260508173554 83 360 3.0 7.0 0.00 0.00 0.00 19 1014.9
20260508173056 83 350 2.0 7.0 0.00 0.00 0.00 19 1014.8
20260508172552 83 51 2.0 5.0 0.00 0.00 0.00 20 1015.0
20260508172052 82 51 1.0 6.0 0.00 0.00 0.00 20 1015.0
20260508171556 82 51 3.0 6.0 0.00 0.00 0.00 20 1015.1
20260508171053 81 360 2.0 5.0 0.00 0.00 0.00 21 1015.2
20260508170552 81 360 3.0 8.0 0.00 0.00 0.00 21 1015.2
20260508170053 80 0 1.0 8.0 0.00 0.00 0.00 22 1015.3
20260508165551 81 360 2.0 5.0 0.00 0.00 0.00 22 1015.4
20260508165048 80 360 0.0 5.0 0.00 0.00 0.00 23 1015.3
20260508164604 79 360 1.0 6.0 0.00 0.00 0.00 22 1015.3
20260508164049 79 360 3.0 6.0 0.00 0.00 0.00 23 1015.3
20260508163548 79 360 1.0 6.0 0.00 0.00 0.00 23 1015.4
20260508163053 78 0 1.0 6.0 0.00 0.00 0.00 24 1015.4
20260508162549 78 360 3.0 6.0 0.00 0.00 0.00 24 1015.4
20260508162052 77 360 2.0 6.0 0.00 0.00 0.00 25 1015.4
20260508161553 77 360 3.0 6.0 0.00 0.00 0.00 25 1015.4
20260508161049 76 360 2.0 6.0 0.00 0.00 0.00 25 1015.4
20260508160551 76 360 3.0 6.0 0.00 0.00 0.00 25 1015.4
20260508160104 75 360 2.0 6.0 0.00 0.00 0.00 26 1015.4
20260508155551 75 360 3.0 6.0 0.00 0.00 0.00 27 1015.5
20260508155049 74 360 2.0 5.0 0.00 0.00 0.00 28 1015.5
20260508154552 74 360 2.0 5.0 0.00 0.00 0.00 28 1015.5
20260508154048 73 360 2.0 6.0 0.00 0.00 0.00 29 1015.6
20260508153552 73 360 2.0 6.0 0.00 0.00 0.00 30 1015.7
20260508153059 73 360 3.0 6.0 0.00 0.00 0.00 29 1015.6
20260508152548 72 360 2.0 5.0 0.00 0.00 0.00 30 1015.7
20260508152048 72 360 2.0 5.0 0.00 0.00 0.00 30 1015.7
20260508151554 71 360 3.0 5.0 0.00 0.00 0.00 30 1015.7
20260508151049 71 360 2.0 5.0 0.00 0.00 0.00 31 1015.7
20260508150552 71 360 2.0 5.0 0.00 0.00 0.00 31 1015.6
20260508150122 71 360 2.0 5.0 0.00 0.00 0.00 30 1015.6
20260508145553 71 360 1.0 4.0 0.00 0.00 0.00 31 1015.6
20260508145050 71 360 2.0 4.0 0.00 0.00 0.00 31 1015.6
20260508144602 71 360 1.0 4.0 0.00 0.00 0.00 32 1015.6
20260508144052 71 360 2.0 4.0 0.00 0.00 0.00 31 1015.6
20260508143556 71 360 1.0 3.0 0.00 0.00 0.00 32 1015.6
20260508143053 70 360 1.0 4.0 0.00 0.00 0.00 33 1015.5
20260508142551 70 0 1.0 4.0 0.00 0.00 0.00 33 1015.5
20260508142055 70 360 2.0 4.0 0.00 0.00 0.00 33 1015.5
20260508141602 70 360 0.0 3.0 0.00 0.00 0.00 33 1015.4
20260508141051 69 360 1.0 2.0 0.00 0.00 0.00 34 1015.4
20260508140551 69 0 0.0 2.0 0.00 0.00 0.00 34 1015.3
20260508135552 67 0 0.0 3.0 0.00 0.00 0.00 36 1015.2
20260508135049 67 360 0.0 3.0 0.00 0.00 0.00 36 1015.2
20260508134557 67 360 1.0 3.0 0.00 0.00 0.00 35 1015.1
20260508134052 66 0 0.0 2.0 0.00 0.00 0.00 36 1015.1
20260508133552 66 0 0.0 0.0 0.00 0.00 0.00 38 1015.1
20260508133056 64 0 0.0 0.0 0.00 0.00 0.00 42 1015.1
20260508132553 62 0 0.0 2.0 0.00 0.00 0.00 45 1015.1
20260508132053 61 0 0.0 2.0 0.00 0.00 0.00 46 1015.0
20260508131600 60 0 0.0 2.0 0.00 0.00 0.00 46 1014.9
20260508131054 59 0 0.0 1.0 0.00 0.00 0.00 47 1014.9
20260508130552 59 0 0.0 1.0 0.00 0.00 0.00 48 1014.8
20260508130054 58 0 0.0 1.0 0.00 0.00 0.00 48 1014.7
20260508125552 58 0 0.0 0.0 0.00 0.00 0.00 48 1014.6
20260508125052 57 0 0.0 2.0 0.00 0.00 0.00 48 1014.5
20260508124600 57 0 0.0 2.0 0.00 0.00 0.00 48 1014.5
20260508124055 57 0 0.0 2.0 0.00 0.00 0.00 49 1014.4
20260508123552 57 0 0.0 0.0 0.00 0.00 0.00 48 1014.4
20260508123056 57 0 0.0 0.0 0.00 0.00 0.00 48 1014.4
20260508122549 57 0 0.0 0.0 0.00 0.00 0.00 48 1014.3
20260508122052 57 0 0.0 0.0 0.00 0.00 0.00 48 1014.3
20260508121552 57 0 0.0 0.0 0.00 0.00 0.00 48 1014.1
20260508121052 57 0 0.0 0.0 0.00 0.00 0.00 48 1014.2
20260508120551 58 0 0.0 0.0 0.00 0.00 0.00 47 1014.1
20260508120059 58 0 0.0 0.0 0.00 0.00 0.00 47 1014.1
20260508115553 58 0 0.0 0.0 0.00 0.00 0.00 47 1014.1
20260508115051 58 0 0.0 0.0 0.00 0.00 0.00 47 1014.1
20260508114601 58 0 0.0 1.0 0.00 0.00 0.00 46 1014.1
20260508114051 58 0 0.0 2.0 0.00 0.00 0.00 46 1014.1
20260508113553 59 0 0.0 2.0 0.00 0.00 0.00 45 1014.1
20260508113124 59 0 0.0 2.0 0.00 0.00 0.00 44 1014.0
20260508112552 59 0 0.0 0.0 0.00 0.00 0.00 44 1014.0
20260508112052 59 0 0.0 0.0 0.00 0.00 0.00 44 1014.0
20260508111556 59 0 0.0 1.0 0.00 0.00 0.00 45 1013.9
20260508111053 59 0 0.0 3.0 0.00 0.00 0.00 45 1013.9
20260508110553 59 0 0.0 3.0 0.00 0.00 0.00 45 1013.9
20260508110053 59 0 0.0 2.0 0.00 0.00 0.00 45 1013.9
20260508105552 59 0 1.0 2.0 0.00 0.00 0.00 45 1013.8
20260508105052 59 0 0.0 0.0 0.00 0.00 0.00 45 1013.8
20260508104559 59 0 0.0 0.0 0.00 0.00 0.00 45 1013.8
20260508104052 59 0 0.0 0.0 0.00 0.00 0.00 45 1013.8
20260508103553 59 0 0.0 0.0 0.00 0.00 0.00 44 1013.8
20260508103107 59 0 0.0 0.0 0.00 0.00 0.00 44 1013.8
20260508102551 60 0 0.0 0.0 0.00 0.00 0.00 43 1013.8
20260508102052 60 0 0.0 0.0 0.00 0.00 0.00 43 1013.8
20260508101551 60 0 0.0 2.0 0.00 0.00 0.00 44 1013.8
20260508101052 60 0 0.0 2.0 0.00 0.00 0.00 43 1013.8
20260508100551 60 0 0.0 2.0 0.00 0.00 0.00 43 1013.8
20260508100052 60 0 0.0 0.0 0.00 0.00 0.00 43 1013.8
20260508095551 61 0 0.0 0.0 0.00 0.00 0.00 42 1013.7
20260508095051 61 0 0.0 0.0 0.00 0.00 0.00 42 1013.6
20260508094600 61 0 0.0 0.0 0.00 0.00 0.00 40 1013.6
20260508094048 62 0 0.0 0.0 0.00 0.00 0.00 40 1013.6
20260508093552 62 0 0.0 0.0 0.00 0.00 0.00 38 1013.6
20260508093056 63 0 0.0 0.0 0.00 0.00 0.00 38 1013.5
20260508092552 63 0 0.0 0.0 0.00 0.00 0.00 38 1013.5
20260508092052 64 0 0.0 0.0 0.00 0.00 0.00 37 1013.6
20260508091553 65 0 0.0 0.0 0.00 0.00 0.00 35 1013.6
20260508091052 66 0 0.0 0.0 0.00 0.00 0.00 34 1013.6
20260508090552 66 0 0.0 4.0 0.00 0.00 0.00 34 1013.6
20260508090054 65 0 0.0 4.0 0.00 0.00 0.00 34 1013.8
20260508085551 64 0 1.0 4.0 0.00 0.00 0.00 35 1013.8
20260508085051 64 0 0.0 2.0 0.00 0.00 0.00 37 1013.8
20260508084552 64 0 0.0 2.0 0.00 0.00 0.00 37 1013.8
20260508084053 64 132 0.0 2.0 0.00 0.00 0.00 37 1013.8
20260508083552 64 0 0.0 2.0 0.00 0.00 0.00 37 1013.8
20260508083052 65 0 0.0 2.0 0.00 0.00 0.00 36 1013.8
20260508082552 65 0 0.0 0.0 0.00 0.00 0.00 36 1013.9
20260508082052 65 0 0.0 1.0 0.00 0.00 0.00 35 1013.8
20260508081604 65 0 0.0 2.0 0.00 0.00 0.00 35 1013.8
20260508081049 65 0 0.0 2.0 0.00 0.00 0.00 35 1013.9
20260508080552 65 0 0.0 1.0 0.00 0.00 0.00 36 1014.0
20260508080052 65 0 0.0 0.0 0.00 0.00 0.00 36 1014.1
20260508075552 65 0 0.0 0.0 0.00 0.00 0.00 35 1014.1
20260508075052 65 0 0.0 2.0 0.00 0.00 0.00 35 1014.2
20260508074553 66 0 0.0 2.0 0.00 0.00 0.00 34 1014.3
20260508074052 66 132 0.0 2.0 0.00 0.00 0.00 34 1014.3
20260508073552 66 0 0.0 0.0 0.00 0.00 0.00 34 1014.3
20260508073059 67 0 0.0 0.0 0.00 0.00 0.00 32 1014.4
20260508072551 67 0 0.0 1.0 0.00 0.00 0.00 32 1014.5
20260508072051 67 0 0.0 2.0 0.00 0.00 0.00 31 1014.5
20260508071550 68 0 0.0 2.0 0.00 0.00 0.00 31 1014.5
20260508071053 68 132 0.0 2.0 0.00 0.00 0.00 30 1014.5
20260508070553 68 0 0.0 2.0 0.00 0.00 0.00 30 1014.4
20260508070101 68 0 0.0 2.0 0.00 0.00 0.00 30 1014.5
20260508065552 69 130 0.0 2.0 0.00 0.00 0.00 28 1014.4
20260508065052 70 0 0.0 1.0 0.00 0.00 0.00 27 1014.5
20260508064606 70 0 0.0 1.0 0.00 0.00 0.00 27 1014.4
20260508064052 70 0 0.0 1.0 0.00 0.00 0.00 27 1014.4
20260508063553 70 0 0.0 3.0 0.00 0.00 0.00 27 1014.4
20260508063055 71 0 0.0 3.0 0.00 0.00 0.00 26 1014.5
20260508062552 71 0 0.0 5.0 0.00 0.00 0.00 26 1014.6
20260508062052 71 0 0.0 5.0 0.00 0.00 0.00 26 1014.6
20260508061559 72 129 2.0 5.0 0.00 0.00 0.00 26 1014.6
20260508061053 72 0 0.0 0.0 0.00 0.00 0.00 25 1014.5
20260508060552 73 0 0.0 0.0 0.00 0.00 0.00 25 1014.5
20260508060059 73 0 0.0 0.0 0.00 0.00 0.00 24 1014.5
20260508055553 73 0 0.0 2.0 0.00 0.00 0.00 24 1014.5
20260508055051 73 0 0.0 4.0 0.00 0.00 0.00 24 1014.5
20260508054625 74 0 0.0 8.0 0.00 0.00 0.00 23 1014.5
20260508054048 74 0 1.0 8.0 0.00 0.00 0.00 23 1014.5
20260508053552 74 132 3.0 8.0 0.00 0.00 0.00 23 1014.6
20260508053059 75 121 4.0 12.0 0.00 0.00 0.00 22 1014.6
20260508052558 75 59 6.0 12.0 0.00 0.00 0.00 21 1014.5
20260508052055 76 35 4.0 11.0 0.00 0.00 0.00 21 1014.5
20260508051600 76 344 2.0 11.0 0.00 0.00 0.00 20 1014.4
20260508051052 76 186 4.0 12.0 0.00 0.00 0.00 21 1014.1
20260508050552 76 207 4.0 12.0 0.00 0.00 0.00 20 1013.9
20260508050057 76 223 2.0 12.0 0.00 0.00 0.00 20 1013.8
20260508045551 76 225 4.0 12.0 0.00 0.00 0.00 20 1013.9
20260508045051 76 241 3.0 12.0 0.00 0.00 0.00 20 1013.8
20260508044556 77 202 3.0 10.0 0.00 0.00 0.00 20 1013.9
20260508044051 77 205 3.0 11.0 0.00 0.00 0.00 19 1013.9
20260508043556 77 193 4.0 11.0 0.00 0.00 0.00 19 1013.9
20260508043100 77 216 4.0 13.0 0.00 0.00 0.00 19 1013.7